| time (UTC) | temp F | wind direction | speed knots | gust knots | rain 1hr in | rain 24hr in | rain mn in | humidity % | barometer mb |
| 20260502170251 | 66 | 101 | 3.5 | 2.6 | 0.00 | 0.00 | 0.00 | 1018.2 | |
| 20260502164256 | 67 | 96 | 3.5 | 0.9 | 0.00 | 0.00 | 0.00 | 1018.8 | |
| 20260502163259 | 66 | 138 | 2.6 | 2.6 | 0.00 | 0.00 | 0.00 | 1019.1 | |
| 20260502162250 | 68 | 120 | 4.3 | 2.6 | 0.00 | 0.00 | 0.00 | 1018.9 | |
| 20260502161248 | 68 | 132 | 2.6 | 4.3 | 0.00 | 0.00 | 0.00 | 1018.9 | |
| 20260502160245 | 68 | 97 | 3.5 | 3.5 | 0.00 | 0.00 | 0.00 | 1019.0 | |
| 20260502152250 | 68 | 128 | 3.5 | 4.3 | 0.00 | 0.00 | 0.00 | 1019.4 | |
| 20260502151245 | 68 | 65 | 4.3 | 5.2 | 0.00 | 0.00 | 0.00 | 1019.4 | |
| 20260502150246 | 69 | 142 | 4.3 | 4.3 | 0.00 | 0.00 | 0.00 | 1019.5 | |
| 20260502130249 | 69 | 167 | 5.2 | 5.2 | 0.00 | 0.00 | 0.00 | 1020.6 | |
| 20260502123245 | 70 | 136 | 1.7 | 0.0 | 0.00 | 0.00 | 0.00 | 1020.7 | |
| 20260502122246 | 70 | 125 | 3.5 | 2.6 | 0.00 | 0.00 | 0.00 | 1020.9 | |
| 20260502121246 | 69 | 165 | 3.5 | 0.0 | 0.00 | 0.00 | 0.00 | 1021.0 | |
| 20260502120245 | 69 | 134 | 1.7 | 0.9 | 0.00 | 0.00 | 0.00 | 1021.1 | |
| 20260502115246 | 69 | 73 | 4.3 | 1.7 | 0.00 | 0.00 | 0.00 | 1021.1 | |
| 20260502114242 | 69 | 203 | 0.0 | 0.9 | 0.00 | 0.00 | 0.00 | 1021.2 | |
| 20260502113242 | 70 | 90 | 2.6 | 1.7 | 0.00 | 0.00 | 0.00 | 1021.2 | |
| 20260502112243 | 69 | 38 | 2.6 | 4.3 | 0.00 | 0.00 | 0.00 | 1021.4 | |
| 20260502111244 | 68 | 70 | 2.6 | 4.3 | 0.00 | 0.00 | 0.00 | 1021.5 | |
| 20260502110243 | 69 | 148 | 1.7 | 2.6 | 0.00 | 0.00 | 0.00 | 1021.6 | |
| 20260502105246 | 68 | 204 | 2.6 | 2.6 | 0.00 | 0.00 | 0.00 | 1021.7 | |
| 20260502104248 | 67 | 121 | 0.9 | 2.6 | 0.00 | 0.00 | 0.00 | 1021.7 | |
| 20260502103244 | 67 | 104 | 1.7 | 2.6 | 0.00 | 0.00 | 0.00 | 1021.8 | |
| 20260502102243 | 67 | 135 | 0.9 | 0.9 | 0.00 | 0.00 | 0.00 | 1022.0 | |
| 20260502101242 | 67 | 134 | 2.6 | 0.9 | 0.00 | 0.00 | 0.00 | 1022.2 | |
| 20260502100243 | 66 | 79 | 0.0 | 0.9 | 0.00 | 0.00 | 0.00 | 1022.5 | |
| 20260502091242 | 65 | 79 | 2.6 | 4.3 | 0.00 | 0.00 | 0.00 | 1022.7 | |
| 20260502090242 | 65 | 23 | 3.5 | 0.9 | 0.00 | 0.00 | 0.00 | 1022.7 | |
| 20260502071253 | 63 | 80 | 1.7 | 2.6 | 0.00 | 0.00 | 0.00 | 1022.7 | |
| 20260502070248 | 64 | 111 | 0.9 | 0.9 | 0.00 | 0.00 | 0.00 | 1022.7 | |
| 20260502065250 | 63 | 124 | 0.9 | 3.5 | 0.00 | 0.00 | 0.00 | 1022.7 | |
| 20260502064242 | 64 | 100 | 0.0 | 0.9 | 0.00 | 0.00 | 0.00 | 1022.8 | |
| 20260502063244 | 64 | 56 | 0.9 | 0.9 | 0.00 | 0.00 | 0.00 | 1022.6 | |
| 20260502062247 | 64 | 69 | 1.7 | 5.2 | 0.00 | 0.00 | 0.00 | 1022.6 | |
| 20260502061250 | 64 | 60 | 4.3 | 4.3 | 0.00 | 0.00 | 0.00 | 1022.4 | |
| 20260502060248 | 63 | 60 | 2.6 | 5.2 | 0.00 | 0.00 | 0.00 | 1022.4 | |
| 20260502055226 | 63 | 25 | 3.5 | 1.7 | 0.00 | 0.00 | 0.00 | 1022.1 | |
| 20260502054228 | 63 | 55 | 1.7 | 1.7 | 0.00 | 0.00 | 0.00 | 1022.0 | |
| 20260502053231 | 63 | 79 | 1.7 | 1.7 | 0.00 | 0.00 | 0.00 | 1022.0 | |
| 20260502052233 | 62 | 68 | 4.3 | 3.5 | 0.00 | 0.00 | 0.00 | 1021.9 | |
| 20260502051226 | 62 | 90 | 1.7 | 0.9 | 0.00 | 0.00 | 0.00 | 1022.3 | |
| 20260502050229 | 62 | 30 | 1.7 | 0.9 | 0.00 | 0.00 | 0.00 | 1022.2 | |
| 20260502045231 | 62 | 66 | 0.0 | 0.0 | 0.00 | 0.00 | 0.00 | 1022.1 | |
| 20260502044226 | 63 | 76 | 1.7 | 1.7 | 0.00 | 0.00 | 0.00 | 1022.1 | |
| 20260502043228 | 62 | 117 | 0.9 | 1.7 | 0.00 | 0.00 | 0.00 | 1022.1 | |
| 20260502042230 | 62 | 113 | 2.6 | 0.9 | 0.00 | 0.00 | 0.00 | 1022.2 | |
| 20260502041223 | 63 | 179 | 0.0 | 0.0 | 0.00 | 0.00 | 0.00 | 1022.2 | |
| 20260502040226 | 63 | 75 | 0.0 | 0.0 | 0.00 | 0.00 | 0.00 | 1022.1 | |
| 20260502035228 | 62 | 96 | 2.6 | 3.5 | 0.00 | 0.00 | 0.00 | 1022.0 | |
| 20260502034229 | 62 | 128 | 0.9 | 1.7 | 0.00 | 0.00 | 0.00 | 1022.1 | |
| 20260502033226 | 62 | 146 | 0.0 | 1.7 | 0.00 | 0.00 | 0.00 | 1022.1 | |
| 20260502032226 | 63 | 46 | 2.6 | 3.5 | 0.00 | 0.00 | 0.00 | 1022.1 | |
| 20260502031223 | 63 | 107 | 0.9 | 1.7 | 0.00 | 0.00 | 0.00 | 1022.0 | |
| 20260502030225 | 63 | 145 | 3.5 | 2.6 | 0.00 | 0.00 | 0.00 | 1022.2 | |
| 20260502025226 | 63 | 142 | 2.6 | 2.6 | 0.00 | 0.00 | 0.00 | 1022.1 | |
| 20260502024229 | 63 | 52 | 0.0 | 0.0 | 0.00 | 0.00 | 0.00 | 1022.1 | |
| 20260502023231 | 63 | 80 | 3.5 | 2.6 | 0.00 | 0.00 | 0.00 | 1022.3 | |
| 20260502022227 | 63 | 51 | 0.0 | 1.7 | 0.00 | 0.00 | 0.00 | 1022.3 | |
| 20260502021204 | 63 | 70 | 1.7 | 2.6 | 0.00 | 0.00 | 0.00 | 1022.3 | |
| 20260502020207 | 63 | 77 | 2.6 | 3.5 | 0.00 | 0.00 | 0.00 | 1022.3 | |
| 20260502015210 | 63 | 17 | 1.7 | 0.0 | 0.00 | 0.00 | 0.00 | 1022.4 | |
| 20260502014200 | 63 | 89 | 3.5 | 2.6 | 0.00 | 0.00 | 0.00 | 1022.4 | |
| 20260502013203 | 63 | 58 | 3.5 | 4.3 | 0.00 | 0.00 | 0.00 | 1022.4 | |
| 20260502012204 | 63 | 77 | 0.0 | 0.9 | 0.00 | 0.00 | 0.00 | 1022.4 | |
| 20260502011201 | 63 | 89 | 1.7 | 0.9 | 0.00 | 0.00 | 0.00 | 1022.5 | |
| 20260502010203 | 63 | 132 | 0.0 | 2.6 | 0.00 | 0.00 | 0.00 | 1022.6 | |
| 20260502005159 | 63 | 105 | 0.9 | 0.9 | 0.00 | 0.00 | 0.00 | 1022.7 | |
| 20260502004156 | 63 | 52 | 2.6 | 4.3 | 0.00 | 0.00 | 0.00 | 1022.8 | |
| 20260502003159 | 63 | 59 | 0.0 | 2.6 | 0.00 | 0.00 | 0.00 | 1023.1 | |
| 20260502002159 | 63 | 318 | 0.0 | 0.0 | 0.00 | 0.00 | 0.00 | 1023.2 | |
| 20260502001159 | 62 | 326 | 0.0 | 1.7 | 0.00 | 0.00 | 0.00 | 1023.3 | |
| 20260502000150 | 62 | 231 | 0.9 | 0.0 | 0.00 | 0.00 | 0.00 | 1023.5 | |
| 20260501235152 | 63 | 41 | 0.0 | 0.0 | 0.00 | 0.00 | 0.00 | 1023.5 | |
| 20260501234144 | 63 | 41 | 0.0 | 0.0 | 0.00 | 0.00 | 0.00 | 1023.5 | |
| 20260501233146 | 62 | 41 | 0.0 | 0.0 | 0.00 | 0.00 | 0.00 | 1023.7 | |
| 20260501232149 | 62 | 31 | 0.9 | 2.6 | 0.00 | 0.00 | 0.00 | 1023.7 | |
| 20260501231149 | 62 | 55 | 0.0 | 0.0 | 0.00 | 0.00 | 0.00 | 1023.8 | |
| 20260501230151 | 62 | 55 | 0.0 | 0.0 | 0.00 | 0.00 | 0.00 | 1023.8 | |
| 20260501225148 | 63 | 55 | 0.0 | 0.0 | 0.00 | 0.00 | 0.00 | 1023.6 | |
| 20260501224148 | 62 | 239 | 0.0 | 0.0 | 0.00 | 0.00 | 0.00 | 1023.5 | |
| 20260501223151 | 62 | 239 | 0.0 | 0.0 | 0.00 | 0.00 | 0.00 | 1023.5 | |
| 20260501222153 | 62 | 239 | 0.0 | 0.0 | 0.00 | 0.00 | 0.00 | 1023.5 | |
| 20260501221156 | 62 | 136 | 0.0 | 0.0 | 0.00 | 0.00 | 0.00 | 1023.5 | |
| 20260501220159 | 62 | 136 | 0.0 | 0.0 | 0.00 | 0.00 | 0.00 | 1023.4 | |
| 20260501215156 | 63 | 136 | 0.0 | 0.0 | 0.00 | 0.00 | 0.00 | 1023.4 | |
| 20260501214141 | 63 | 136 | 0.0 | 0.0 | 0.00 | 0.00 | 0.00 | 1023.5 | |
| 20260501213139 | 62 | 136 | 0.0 | 0.0 | 0.00 | 0.00 | 0.00 | 1023.5 | |
| 20260501212138 | 62 | 170 | 0.0 | 0.0 | 0.00 | 0.00 | 0.00 | 1023.6 | |
| 20260501211139 | 62 | 181 | 0.0 | 0.0 | 0.00 | 0.00 | 0.00 | 1023.7 | |
| 20260501210139 | 63 | 181 | 1.7 | 0.0 | 0.00 | 0.00 | 0.00 | 1023.6 | |
| 20260501205140 | 63 | 194 | 1.7 | 2.6 | 0.00 | 0.00 | 0.00 | 1023.7 | |
| 20260501204139 | 63 | 143 | 1.7 | 0.9 | 0.00 | 0.00 | 0.00 | 1023.6 | |
| 20260501203128 | 63 | 208 | 0.9 | 3.5 | 0.00 | 0.00 | 0.00 | 1023.2 | |
| 20260501202130 | 63 | 44 | 0.0 | 0.0 | 0.00 | 0.00 | 0.00 | 1023.2 | |
| 20260501201133 | 63 | 148 | 2.6 | 4.3 | 0.00 | 0.00 | 0.00 | 1023.2 | |
| 20260501200131 | 63 | 104 | 2.6 | 2.6 | 0.00 | 0.00 | 0.00 | 1023.1 | |
| 20260501194940 | 63 | 118 | 3.5 | 1.7 | 0.00 | 0.00 | 0.00 | 1023.0 | |
| 20260501193318 | 63 | 128 | 2.6 | 1.7 | 0.00 | 0.00 | 0.00 | 1022.7 | |
| 20260501192320 | 64 | 159 | 5.2 | 2.6 | 0.00 | 0.00 | 0.00 | 1022.7 | |
| 20260501191315 | 63 | 136 | 5.2 | 2.6 | 0.00 | 0.00 | 0.00 | 1022.6 | |
| 20260501190312 | 64 | 129 | 3.5 | 1.7 | 0.00 | 0.00 | 0.00 | 1022.6 | |
| 20260501185315 | 64 | 180 | 4.3 | 4.3 | 0.00 | 0.00 | 0.00 | 1022.5 | |
| 20260501184318 | 64 | 134 | 7.0 | 7.8 | 0.00 | 0.00 | 0.00 | 1022.5 | |
| 20260501183320 | 65 | 158 | 7.0 | 6.1 | 0.00 | 0.00 | 0.00 | 1022.2 | |
| 20260501182323 | 65 | 152 | 5.2 | 5.2 | 0.00 | 0.00 | 0.00 | 1022.1 | |
| 20260501181326 | 66 | 159 | 3.5 | 5.2 | 0.00 | 0.00 | 0.00 | 1022.1 | |
| 20260501180316 | 66 | 129 | 6.1 | 5.2 | 0.00 | 0.00 | 0.00 | 1022.0 | |
| 20260501175311 | 66 | 158 | 7.0 | 8.7 | 0.00 | 0.00 | 0.00 | 1021.8 | |
| 20260501174314 | 66 | 113 | 7.8 | 5.2 | 0.00 | 0.00 | 0.00 | 1021.6 | |
| 20260501173317 | 66 | 143 | 7.0 | 4.3 | 0.00 | 0.00 | 0.00 | 1021.5 | |
| 20260501172315 | 66 | 132 | 7.8 | 10.4 | 0.00 | 0.00 | 0.00 | 1021.3 |